Kalamazoo, MI

6:46 AM EDT on June 21, 2018 (GMT -0400)
Kalamazoo-Battle Creek International

Weather History for KAZO - October, 2017

Change the Weather History Date:

Saturday, October 7, 2017

  Actual Average Record
Temperature  
Mean Temperature 72 °F 54 °F  
Max Temperature 84 °F 64 °F 86 °F (1963)
Min Temperature 60 °F 44 °F 28 °F (2001)
Degree Days  
Heating Degree Days 0 12  
Month to date heating degree days 15 75  
Since 1 July heating degree days 115 224  
Cooling Degree Days 7 1  
Month to date cooling degree days 15 7  
Year to date cooling degree days 763 674  
Growing Degree Days 22 (Base 50)    
Moisture  
Dew Point 59 °F    
Average Humidity 65    
Maximum Humidity 87    
Minimum Humidity 43    
Precipitation  
Precipitation 0.64 in 0.10 in 1.91 in (1951)
Month to date precipitation 1.12 0.78  
Year to date precipitation 23.96 28.19  
Sea Level Pressure  
Sea Level Pressure 29.66 in    
Wind  
Wind Speed 13 mph (SSW)    
Max Wind Speed 29 mph    
Max Gust Speed 36 mph    
Visibility 8 miles    
Events Rain , Thunderstorm    
T = Trace of Precipitation, MM = Missing Value Source: NWS Daily Summary

Daily Weather History Graph

Daily Weather History Graph

Search for Another Location

Airport or City:

Astronomy

Oct. 07, 2017 Rise Set
Actual Time 7:46 AM EDT 7:13 PM EDT
Civil Twilight 7:18 AM EDT 7:40 PM EDT
Nautical Twilight 6:45 AM EDT 8:13 PM EDT
Astronomical Twilight 6:13 AM EDT 8:45 PM EDT
Moon 8:49 PM EDT (10/7) 9:40 AM EDT (10/7)
Length of Visible Light 12h 22m
Length of Day
11h 26m
Waning Gibbous, 95% of the Moon is Illuminated
Oct 7
Waning Gibbous
Oct 12
Last Quarter
Oct 19
New
Oct 27
First Quarter
Nov 4
Full

Hourly Weather History & Observations

Time (EDT) Temp. Heat Index Dew Point Humidity Pressure Visibility Wind Dir Wind Speed Gust Speed Precip Events Conditions
12:53 AM 66.0 °F - 62.1 °F 87% 29.86 in 7.0 mi SSE 4.6 mph - N/A   Overcast
1:53 AM 66.0 °F - 61.0 °F 84% 29.85 in 8.0 mi South 9.2 mph - N/A   Overcast
2:53 AM 66.9 °F - 61.0 °F 81% 29.84 in 9.0 mi South 6.9 mph - N/A   Overcast
3:53 AM 66.0 °F - 61.0 °F 84% 29.83 in 9.0 mi South 6.9 mph - 0.00 in   Overcast
4:53 AM 66.9 °F - 60.1 °F 79% 29.80 in 10.0 mi SSE 5.8 mph - 0.00 in   Overcast
5:53 AM 66.0 °F - 60.1 °F 81% 29.79 in 10.0 mi South 4.6 mph - 0.02 in Rain Light Rain
6:53 AM 64.9 °F - 60.1 °F 84% 29.81 in 8.0 mi South 5.8 mph - 0.05 in Rain Light Rain
7:53 AM 64.9 °F - 60.1 °F 84% 29.81 in 7.0 mi South 8.1 mph - 0.02 in   Overcast
8:53 AM 64.9 °F - 60.1 °F 84% 29.80 in 10.0 mi SSE 5.8 mph - N/A   Mostly Cloudy
9:53 AM 68.0 °F - 60.1 °F 76% 29.76 in 10.0 mi South 10.4 mph - N/A   Scattered Clouds
10:53 AM 73.0 °F - 61.0 °F 66% 29.72 in 10.0 mi South 16.1 mph - N/A   Clear
11:53 AM 75.9 °F - 60.1 °F 58% 29.70 in 10.0 mi South 20.7 mph 28.8 mph N/A   Partly Cloudy
12:53 PM 75.9 °F - 59.0 °F 56% 29.68 in 10.0 mi South 23.0 mph 29.9 mph N/A   Clear
1:53 PM 80.1 °F 80.7 °F 59.0 °F 48% 29.65 in 10.0 mi SSW 17.3 mph 31.1 mph N/A   Mostly Cloudy
2:53 PM 82.9 °F 82.8 °F 59.0 °F 44% 29.61 in 10.0 mi South 20.7 mph 33.4 mph N/A   Scattered Clouds
3:53 PM 82.9 °F 82.4 °F 57.0 °F 41% 29.59 in 10.0 mi SSW 23.0 mph 33.4 mph N/A   Mostly Cloudy
4:53 PM 81.0 °F 81.0 °F 57.0 °F 44% 29.57 in 10.0 mi SSW 13.8 mph 25.3 mph N/A   Scattered Clouds
5:53 PM 81.0 °F 81.1 °F 57.9 °F 45% 29.54 in 10.0 mi South 16.1 mph 28.8 mph N/A   Clear
6:53 PM 79.0 °F - 57.9 °F 48% 29.51 in 10.0 mi South 13.8 mph 26.5 mph N/A   Partly Cloudy
7:48 PM 73.4 °F - 57.2 °F 57% 29.55 in 8.0 mi WNW 20.7 mph 33.4 mph 0.00 in Rain Light Rain
7:53 PM 68.0 °F - 60.1 °F 76% 29.55 in 7.0 mi WNW 21.9 mph 33.4 mph 0.01 in Rain Light Rain
8:00 PM 66.0 °F - 60.1 °F 81% 29.57 in 5.0 mi West 24.2 mph 33.4 mph 0.03 in Rain Rain
8:06 PM 64.9 °F - 60.1 °F 84% 29.59 in 1.8 mi West 21.9 mph 31.1 mph 0.11 in Rain Heavy Rain
8:16 PM 64.9 °F - 60.1 °F 84% 29.57 in 4.0 mi West 12.7 mph 27.6 mph 0.16 in Rain Rain
8:28 PM 64.9 °F - 60.1 °F 84% 29.59 in 3.0 mi West 17.3 mph 28.8 mph 0.26 in Rain , Thunderstorm Light Rain
8:36 PM 64.0 °F - 60.1 °F 87% 29.58 in 3.0 mi West 16.1 mph 26.5 mph 0.29 in Rain , Thunderstorm Rain
8:42 PM 64.0 °F - 60.1 °F 87% 29.59 in 3.0 mi West 18.4 mph 26.5 mph 0.30 in Rain Light Rain
8:53 PM 64.0 °F - 59.0 °F 84% 29.60 in 3.0 mi WSW 13.8 mph 29.9 mph 0.40 in Rain , Thunderstorm Light Thunderstorms and Rain
8:58 PM 64.0 °F - 57.9 °F 80% 29.61 in 2.0 mi SW 24.2 mph 29.9 mph 0.08 in Rain , Thunderstorm Heavy Thunderstorms and Rain
9:08 PM 63.0 °F - 55.9 °F 78% 29.60 in 2.0 mi WSW 19.6 mph 34.5 mph 0.13 in Rain Heavy Rain
9:18 PM 62.1 °F - 57.0 °F 84% 29.61 in 2.0 mi SSW 17.3 mph 24.2 mph 0.14 in Rain , Thunderstorm Light Rain
9:27 PM 61.0 °F - 54.0 °F 78% 29.60 in 10.0 mi SW 15.0 mph 24.2 mph 0.14 in Rain Light Rain
9:53 PM 61.0 °F - 55.9 °F 83% 29.60 in 10.0 mi SSW 13.8 mph - 0.14 in   Mostly Cloudy
10:53 PM 61.0 °F - 55.9 °F 83% 29.60 in 10.0 mi SSW 12.7 mph 19.6 mph N/A   Scattered Clouds
11:18 PM 61.0 °F - 57.0 °F 87% 29.61 in 10.0 mi SSW 12.7 mph - N/A   Overcast
11:53 PM 62.1 °F - 55.9 °F 80% 29.60 in 10.0 mi SSW 15.0 mph 24.2 mph N/A   Overcast